This is the latest recevied weather packets stored in our database for station/object XE1GMR. If no packets are shown the sender has not sent any weather packets the latest 10 day(s).
| Time | Temp. | Humidity | Pressure | Rain* | Wind** | Luminosity | Snow |
|---|---|---|---|---|---|---|---|
| 1777593543 | 30.56° C | 17% | 1116 hPa | 0 mm | - | 42 W/m² | - |
| 1777593243 | 30.56° C | 17% | 1115.9 hPa | 0 mm | - | 38 W/m² | - |
| 1777592942 | 30.56° C | 17% | 1116.2 hPa | 0 mm | - | 54 W/m² | - |
| 1777592637 | 31.11° C | 17% | 1116.1 hPa | 0 mm | - | 73 W/m² | - |
| 1777592334 | 30.56° C | 17% | 1116.2 hPa | 0 mm | - | 85 W/m² | - |
| 1777592029 | 31.11° C | 17% | 1116.1 hPa | 0 mm | - | 65 W/m² | - |
| 1777591727 | 31.67° C | 16% | 1116.2 hPa | 0 mm | - | 104 W/m² | - |
| 1777591422 | 31.67° C | 16% | 1116.2 hPa | 0 mm | - | 115 W/m² | - |
| 1777591118 | 31.11° C | 17% | 1116.2 hPa | 0 mm | - | 135 W/m² | - |
| 1777590813 | 31.11° C | 17% | 1116.3 hPa | 0 mm | - | 152 W/m² | - |
| 1777590510 | 31.67° C | 17% | 1116.3 hPa | 0 mm | - | 175 W/m² | - |
| 1777590206 | 32.22° C | 16% | 1116.2 hPa | 0 mm | - | 206 W/m² | - |
| 1777589904 | 31.67° C | 16% | 1116.3 hPa | 0 mm | - | 220 W/m² | - |
| 1777589599 | 31.11° C | 16% | 1116.3 hPa | 0 mm | - | 248 W/m² | - |
| 1777589297 | 31.11° C | 17% | 1116.2 hPa | 0 mm | - | 250 W/m² | - |
| 1777588995 | 31.67° C | 16% | 1116.2 hPa | 0 mm | - | 275 W/m² | - |
| 1777588690 | 32.78° C | 16% | 1116.1 hPa | 0 mm | - | 316 W/m² | - |
| 1777588385 | 33.33° C | 14% | 1116.1 hPa | 0 mm | - | 349 W/m² | - |
| 1777588082 | 32.78° C | 15% | 1116.2 hPa | 0 mm | - | 371 W/m² | - |
| 1777587778 | 32.78° C | 16% | 1116 hPa | 0 mm | - | 395 W/m² | - |
| 1777587477 | 32.78° C | 16% | 1116.3 hPa | 0 mm | - | 384 W/m² | - |
| 1777587174 | 31.67° C | 16% | 1116.3 hPa | 0 mm | - | 417 W/m² | - |
| 1777586869 | 32.22° C | 16% | 1116.4 hPa | 0 mm | - | 435 W/m² | - |
| 1777586565 | 31.11° C | 17% | 1116.4 hPa | 0 mm | - | 446 W/m² | - |
| 1777586261 | 31.67° C | 16% | 1116.3 hPa | 0 mm | - | 456 W/m² | - |
* Rain latest hour (hover to see other rain measurements)
** Current wind speed in m/s (hover to see current wind gust speed)